Thedford, NE

4:10 AM CST on December 16, 2017 (GMT -0600)
Thedford

Weather History for KTIF - January, 2013

Change the Weather History Date:

Thursday, January 24, 2013

  Actual Average (KANW) Record (KANW)
Temperature  
Mean Temperature 18 °F -  
Max Temperature 30 °F 33 °F 68 °F (2005)
Min Temperature 6 °F 14 °F -5 °F (1997)
Degree Days  
Heating Degree Days 47    
Moisture  
Dew Point 10 °F    
Average Humidity 72    
Maximum Humidity 86    
Minimum Humidity 59    
Precipitation  
Precipitation 0.00 in - - ()
Sea Level Pressure  
Sea Level Pressure 30.12 in    
Wind  
Wind Speed 10 mph (South)    
Max Wind Speed 24 mph    
Max Gust Speed 30 mph    
Visibility 10 miles    
Events      
Averages and records for this station are not official NWS values.
T = Trace of Precipitation, MM = Missing Value Source: NWS Daily Summary

Daily Weather History Graph

Daily Weather History Graph

Search for Another Location

Airport or City:

Trip Planner

Search our weather history database for the weather conditions in past years. The results will help you decide how hot, cold, wet, or windy it might be!

Date:

Astronomy

Jan. 24, 2013 Rise Set
Actual Time 8:01 AM CST 5:47 PM CST
Civil Twilight 7:31 AM CST 6:17 PM CST
Nautical Twilight 6:57 AM CST 6:51 PM CST
Astronomical Twilight 6:24 AM CST 7:24 PM CST
Moon 3:50 PM CST (1/24) 6:01 AM CST (1/24)
Length of Visible Light 10h 45m
Length of Day
9h 45m
Waxing Gibbous, 94% of the Moon is Illuminated
Jan 24
Waxing Gibbous
Jan 26
Full
Feb 3
Last Quarter
Feb 10
New
Feb 17
First Quarter

Hourly Weather History & Observations

Time (CST) Temp. Windchill Dew Point Humidity Pressure Visibility Wind Dir Wind Speed Gust Speed Precip Events Conditions
12:15 AM 10.4 °F 2.2 °F 5.9 °F 82% 30.34 in 10.0 mi ESE 4.6 mph - N/A   Clear
12:35 AM 10.4 °F 2.2 °F 6.3 °F 83% 30.34 in 10.0 mi ESE 4.6 mph - N/A   Clear
12:55 AM 10.4 °F 2.2 °F 6.4 °F 84% 30.34 in 10.0 mi ESE 4.6 mph - N/A   Clear
1:15 AM 10.4 °F 0.8 °F 6.4 °F 84% 30.33 in 10.0 mi ESE 5.8 mph - N/A   Clear
1:35 AM 10.4 °F 2.2 °F 6.4 °F 84% 30.33 in 10.0 mi SE 4.6 mph - N/A   Clear
1:55 AM 10.0 °F -0.9 °F 5.9 °F 83% 30.31 in 10.0 mi SE 6.9 mph - N/A   Clear
2:15 AM 9.3 °F -2.8 °F 5.9 °F 86% 30.31 in 10.0 mi SE 8.1 mph - N/A   Clear
2:35 AM 9.9 °F -3.1 °F 5.9 °F 84% 30.29 in 10.0 mi SE 9.2 mph - N/A   Clear
2:55 AM 9.5 °F -3.5 °F 5.5 °F 84% 30.29 in 10.0 mi SE 9.2 mph - N/A   Clear
3:15 AM 9.9 °F -4.0 °F 5.4 °F 82% 30.29 in 10.0 mi SE 10.4 mph - N/A   Clear
3:35 AM 9.7 °F -3.3 °F 5.4 °F 83% 30.29 in 10.0 mi SE 9.2 mph 16.1 mph N/A   Clear
3:55 AM 9.5 °F -4.4 °F 5.4 °F 83% 30.28 in 10.0 mi SE 10.4 mph - N/A   Clear
4:15 AM 9.9 °F -4.0 °F 5.4 °F 82% 30.28 in 10.0 mi SSE 10.4 mph - N/A   Clear
4:35 AM 9.5 °F -4.4 °F 5.5 °F 84% 30.26 in 10.0 mi SSE 10.4 mph - N/A   Clear
4:55 AM 9.3 °F -5.4 °F 5.4 °F 84% 30.24 in 10.0 mi SSE 11.5 mph - N/A   Clear
5:15 AM 8.8 °F -3.5 °F 5.0 °F 85% 30.24 in 10.0 mi SSE 8.1 mph - N/A   Clear
5:35 AM 8.4 °F -4.9 °F 4.8 °F 85% 30.22 in 10.0 mi SSE 9.2 mph - N/A   Clear
5:55 AM 8.2 °F -7.5 °F 4.5 °F 85% 30.21 in 10.0 mi SSE 12.7 mph - N/A   Clear
6:15 AM 8.2 °F -6.0 °F 3.2 °F 80% 30.21 in 10.0 mi SSE 10.4 mph - N/A   Clear
6:35 AM 7.5 °F -5.0 °F 2.7 °F 81% 30.21 in 10.0 mi SE 8.1 mph - N/A   Clear
6:55 AM 7.2 °F -8.9 °F 2.7 °F 82% 30.19 in 10.0 mi SSE 12.7 mph 16.1 mph N/A   Clear
7:15 AM 6.8 °F -10.0 °F 2.3 °F 82% 30.19 in 10.0 mi SSE 13.8 mph - N/A   Clear
7:35 AM 7.3 °F -8.6 °F 2.7 °F 81% 30.19 in 10.0 mi SSE 12.7 mph - N/A   Clear
7:55 AM 7.9 °F -8.0 °F 2.7 °F 79% 30.18 in 10.0 mi South 12.7 mph 18.4 mph N/A   Clear
8:15 AM 8.6 °F -6.3 °F 2.7 °F 77% 30.18 in 10.0 mi South 11.5 mph 21.9 mph N/A   Clear
8:35 AM 8.6 °F -6.3 °F 2.5 °F 76% 30.17 in 10.0 mi South 11.5 mph - N/A   Clear
8:55 AM 8.6 °F -4.7 °F 2.7 °F 77% 30.17 in 10.0 mi SSE 9.2 mph - N/A   Clear
9:15 AM 9.5 °F -8.3 °F 3.2 °F 76% 30.17 in 10.0 mi South 17.3 mph 23.0 mph N/A   Clear
9:35 AM 10.9 °F -4.1 °F 3.7 °F 73% 30.17 in 10.0 mi South 12.7 mph 21.9 mph N/A   Clear
9:55 AM 11.5 °F -3.4 °F 3.7 °F 71% 30.16 in 10.0 mi South 12.7 mph 21.9 mph N/A   Clear
10:15 AM 13.1 °F -5.1 °F 4.5 °F 68% 30.14 in 10.0 mi South 20.7 mph 25.3 mph N/A   Clear
10:35 AM 15.4 °F 0.4 °F 5.7 °F 65% 30.14 in 10.0 mi South 15.0 mph 21.9 mph N/A   Clear
10:55 AM 16.7 °F 1.0 °F 6.1 °F 63% 30.12 in 10.0 mi South 17.3 mph 28.8 mph N/A   Clear
11:15 AM 18.7 °F 2.7 °F 7.5 °F 62% 30.11 in 10.0 mi South 19.6 mph 27.6 mph N/A   Clear
11:35 AM 20.1 °F 4.6 °F 8.6 °F 61% 30.10 in 10.0 mi South 19.6 mph 25.3 mph N/A   Clear
11:55 AM 20.5 °F 5.5 °F 9.5 °F 63% 30.08 in 10.0 mi South 18.4 mph 28.8 mph N/A   Clear
12:15 PM 21.4 °F 5.1 °F 10.0 °F 62% 30.07 in 10.0 mi SSW 23.0 mph 29.9 mph N/A   Clear
12:35 PM 22.1 °F 5.7 °F 10.4 °F 61% 30.05 in 10.0 mi South 24.2 mph 27.6 mph N/A   Clear
12:55 PM 21.7 °F 5.6 °F 10.4 °F 62% 30.03 in 10.0 mi South 23.0 mph 29.9 mph N/A   Clear
1:15 PM 22.1 °F 7.6 °F 10.6 °F 61% 30.02 in 10.0 mi South 18.4 mph 27.6 mph N/A   Clear
1:35 PM 22.6 °F 7.5 °F 11.1 °F 61% 30.01 in 10.0 mi South 20.7 mph 25.3 mph N/A   Clear
1:55 PM 22.8 °F 8.9 °F 11.7 °F 62% 29.99 in 10.0 mi SSW 17.3 mph 27.6 mph N/A   Clear
2:15 PM 23.0 °F 8.3 °F 11.8 °F 62% 29.98 in 10.0 mi South 19.6 mph 25.3 mph N/A   Clear
2:35 PM 24.3 °F 10.0 °F 12.7 °F 62% 29.96 in 10.0 mi South 19.6 mph - N/A   Clear
2:55 PM 24.4 °F 11.0 °F 13.1 °F 62% 29.96 in 10.0 mi SSW 17.3 mph 24.2 mph N/A   Clear
3:15 PM 25.2 °F 12.9 °F 13.5 °F 61% 29.96 in 10.0 mi SSW 15.0 mph 21.9 mph N/A   Clear
3:35 PM 25.7 °F 13.1 °F 13.8 °F 61% 29.95 in 10.0 mi SSW 16.1 mph 21.9 mph N/A   Clear
5:15 PM 29.3 °F 19.6 °F 16.5 °F 59% 29.95 in 10.0 mi SSW 11.5 mph - N/A   Clear
5:35 PM 28.4 °F 19.7 °F 16.7 °F 62% 29.94 in 10.0 mi SSW 9.2 mph - N/A   Clear
5:55 PM 28.4 °F 20.4 °F 17.1 °F 63% 29.93 in 10.0 mi SSW 8.1 mph - N/A   Clear
6:15 PM 28.8 °F 19.5 °F 17.6 °F 63% 29.94 in 10.0 mi SSW 10.4 mph - N/A   Clear
6:35 PM 29.3 °F 18.6 °F 18.1 °F 63% 29.95 in 10.0 mi SSW 13.8 mph 17.3 mph N/A   Clear
6:55 PM 29.3 °F 17.3 °F 18.5 °F 64% 29.96 in 10.0 mi SSW 17.3 mph 20.7 mph N/A   Clear
7:15 PM 29.3 °F 18.6 °F 18.5 °F 64% 29.97 in 10.0 mi SW 13.8 mph - N/A   Clear
7:35 PM 28.9 °F 19.2 °F 18.7 °F 66% 29.98 in 10.0 mi SW 11.5 mph - N/A   Clear
7:55 PM 28.0 °F 20.0 °F 19.0 °F 69% 29.98 in 10.0 mi SW 8.1 mph - N/A   Clear
8:15 PM 27.5 °F 21.1 °F 19.0 °F 71% 30.00 in 10.0 mi WSW 5.8 mph - N/A   Clear
8:35 PM 27.1 °F 20.7 °F 19.2 °F 72% 30.00 in 10.0 mi WSW 5.8 mph - N/A   Clear
8:55 PM 28.4 °F 21.2 °F 20.3 °F 72% 30.01 in 10.0 mi WNW 6.9 mph - N/A   Clear
9:15 PM 27.3 °F 18.4 °F 19.8 °F 73% 30.01 in 10.0 mi WNW 9.2 mph - N/A   Clear
9:35 PM 28.4 °F 21.2 °F 20.3 °F 72% 30.03 in 10.0 mi WNW 6.9 mph - N/A   Clear
9:55 PM 27.5 °F 20.2 °F 20.3 °F 74% 30.03 in 10.0 mi West 6.9 mph - N/A   Clear
10:15 PM 28.4 °F 21.2 °F 20.5 °F 72% 30.04 in 10.0 mi WNW 6.9 mph - N/A   Clear
10:35 PM 29.8 °F 24.9 °F 20.8 °F 69% 30.05 in 10.0 mi NW 4.6 mph - N/A   Clear
10:55 PM 30.7 °F 24.9 °F 20.7 °F 66% 30.07 in 10.0 mi WNW 5.8 mph - N/A   Clear
11:15 PM 30.2 °F 23.4 °F 20.3 °F 67% 30.07 in 10.0 mi WNW 6.9 mph - N/A   Clear
11:35 PM 29.8 °F 21.5 °F 20.7 °F 69% 30.08 in 10.0 mi WNW 9.2 mph - N/A   Clear
11:55 PM 27.9 °F 20.6 °F 19.8 °F 72% 30.08 in 10.0 mi West 6.9 mph - N/A   Clear